Precipitable_Water
0.49 0.38 0.28 0.29 0.27 0.25 0.27 0.19 0.20 0.27 0.35 0.33 0.34 0.40 0.54 0.66 0.72 0.68 0.75 0.79 0.79 0.77 0.85 0.87 0.87 0.85 0.82 0.79 0.73 0.65 0.63 0.64 0.61 0.54 0.48 0.48 0.46 0.48 0.47 0.46 0.44 0.43 0.41 0.41
0.41 0.33 0.38 0.39 0.32 0.29 0.30 0.24 0.20 0.30 0.34 0.32 0.31 0.34 0.48 0.56 0.65 0.72 0.71 0.77 0.74 0.73 0.77 0.81 0.83 0.83 0.80 0.76 0.72 0.65 0.65 0.65 0.61 0.57 0.55 0.54 0.55 0.53 0.50 0.48 0.44 0.43 0.42 0.41
0.39 0.39 0.42 0.37 0.30 0.26 0.28 0.24 0.22 0.24 0.30 0.31 0.27 0.26 0.34 0.45 0.56 0.59 0.62 0.66 0.73 0.65 0.69 0.71 0.72 0.77 0.77 0.72 0.67 0.64 0.65 0.65 0.63 0.59 0.55 0.53 0.53 0.51 0.46 0.45 0.43 0.43 0.42 0.41
0.41 0.47 0.38 0.35 0.29 0.27 0.23 0.29 0.27 0.25 0.24 0.18 0.24 0.16 0.24 0.31 0.40 0.50 0.53 0.54 0.53 0.57 0.63 0.64 0.63 0.66 0.69 0.69 0.69 0.66 0.66 0.65 0.63 0.59 0.52 0.48 0.46 0.45 0.48 0.47 0.46 0.43 0.42 0.41
0.36 0.36 0.32 0.30 0.30 0.30 0.26 0.29 0.26 0.26 0.24 0.20 0.19 0.16 0.17 0.26 0.26 0.33 0.44 0.47 0.49 0.51 0.54 0.53 0.55 0.61 0.67 0.68 0.65 0.66 0.66 0.64 0.60 0.57 0.55 0.51 0.47 0.47 0.48 0.45 0.41 0.42 0.42 0.42
0.39 0.42 0.38 0.37 0.38 0.34 0.33 0.27 0.23 0.25 0.24 0.15 0.19 0.17 0.16 0.19 0.24 0.27 0.30 0.36 0.41 0.44 0.47 0.50 0.55 0.62 0.62 0.65 0.64 0.64 0.62 0.58 0.57 0.55 0.51 0.48 0.46 0.45 0.42 0.41 0.40 0.42 0.43 0.44
0.34 0.32 0.39 0.39 0.32 0.33 0.31 0.25 0.16 0.14 0.14 0.14 0.18 0.18 0.17 0.24 0.27 0.27 0.28 0.32 0.35 0.37 0.40 0.45 0.49 0.53 0.56 0.57 0.60 0.60 0.57 0.54 0.55 0.53 0.50 0.48 0.47 0.46 0.42 0.43 0.42 0.43 0.43 0.44
0.27 0.21 0.34 0.39 0.35 0.30 0.28 0.27 0.22 0.11 0.11 0.12 0.19 0.14 0.16 0.27 0.33 0.34 0.33 0.34 0.36 0.37 0.42 0.45 0.48 0.51 0.52 0.54 0.56 0.56 0.55 0.55 0.55 0.52 0.50 0.50 0.47 0.45 0.44 0.44 0.45 0.45 0.46 0.49
0.25 0.28 0.38 0.38 0.38 0.36 0.29 0.22 0.30 0.18 0.19 0.14 0.15 0.16 0.23 0.26 0.27 0.31 0.32 0.35 0.36 0.39 0.42 0.45 0.48 0.50 0.51 0.54 0.55 0.55 0.56 0.54 0.53 0.52 0.50 0.47 0.47 0.46 0.46 0.48 0.49 0.50 0.53 0.54
0.28 0.21 0.32 0.35 0.37 0.34 0.30 0.30 0.21 0.20 0.14 0.11 0.15 0.14 0.13 0.19 0.22 0.28 0.31 0.34 0.38 0.42 0.45 0.47 0.49 0.52 0.55 0.57 0.59 0.59 0.57 0.54 0.52 0.51 0.50 0.50 0.50 0.50 0.51 0.52 0.53 0.56 0.58 0.60
0.28 0.25 0.27 0.29 0.25 0.24 0.23 0.21 0.22 0.21 0.19 0.13 0.11 0.13 0.21 0.22 0.24 0.26 0.31 0.35 0.38 0.41 0.43 0.44 0.46 0.50 0.53 0.55 0.55 0.54 0.54 0.52 0.52 0.53 0.53 0.51 0.51 0.53 0.56 0.57 0.59 0.60 0.63 0.66
0.28 0.25 0.20 0.23 0.29 0.30 0.26 0.21 0.20 0.16 0.14 0.15 0.14 0.13 0.23 0.23 0.24 0.28 0.31 0.35 0.38 0.39 0.40 0.42 0.44 0.46 0.46 0.47 0.48 0.49 0.51 0.51 0.52 0.52 0.52 0.54 0.57 0.58 0.57 0.57 0.59 0.62 0.62 0.62
0.27 0.21 0.16 0.17 0.20 0.24 0.20 0.21 0.20 0.19 0.19 0.14 0.12 0.11 0.22 0.23 0.25 0.29 0.30 0.32 0.34 0.36 0.37 0.39 0.41 0.41 0.43 0.45 0.47 0.48 0.48 0.49 0.51 0.54 0.55 0.55 0.55 0.56 0.58 0.61 0.62 0.61 0.60 0.59
0.28 0.20 0.17 0.15 0.18 0.19 0.17 0.18 0.19 0.18 0.14 0.12 0.12 0.12 0.16 0.20 0.23 0.27 0.29 0.31 0.33 0.35 0.36 0.37 0.39 0.40 0.42 0.42 0.42 0.43 0.46 0.51 0.53 0.53 0.51 0.50 0.50 0.50 0.48 0.47 0.45 0.43 0.41 0.37
0.26 0.18 0.19 0.18 0.17 0.17 0.16 0.16 0.18 0.17 0.16 0.13 0.14 0.15 0.17 0.21 0.24 0.27 0.30 0.32 0.31 0.33 0.34 0.36 0.37 0.38 0.39 0.39 0.41 0.42 0.42 0.41 0.42 0.42 0.42 0.43 0.44 0.44 0.44 0.42 0.40 0.37 0.34 0.31
0.27 0.16 0.18 0.13 0.14 0.14 0.13 0.14 0.15 0.18 0.18 0.17 0.17 0.16 0.22 0.23 0.27 0.28 0.29 0.30 0.30 0.31 0.33 0.35 0.35 0.36 0.36 0.37 0.38 0.39 0.41 0.42 0.43 0.43 0.43 0.44 0.43 0.41 0.39 0.37 0.34 0.31 0.29 0.27
0.31 0.25 0.22 0.17 0.23 0.23 0.17 0.19 0.18 0.14 0.16 0.16 0.13 0.17 0.21 0.20 0.22 0.24 0.26 0.29 0.32 0.36 0.37 0.37 0.37 0.38 0.39 0.41 0.42 0.43 0.42 0.43 0.44 0.44 0.43 0.42 0.39 0.36 0.33 0.30 0.28 0.26 0.24 0.23
0.34 0.31 0.28 0.24 0.26 0.17 0.25 0.30 0.28 0.24 0.23 0.22 0.22 0.22 0.24 0.25 0.28 0.30 0.35 0.36 0.38 0.41 0.42 0.43 0.44 0.44 0.44 0.44 0.44 0.43 0.44 0.46 0.44 0.42 0.39 0.35 0.32 0.29 0.27 0.25 0.23 0.21 0.20 0.18
0.42 0.35 0.29 0.26 0.26 0.28 0.30 0.33 0.31 0.28 0.27 0.31 0.29 0.30 0.32 0.34 0.35 0.37 0.44 0.48 0.49 0.49 0.49 0.49 0.50 0.47 0.45 0.45 0.46 0.47 0.46 0.44 0.39 0.36 0.32 0.29 0.28 0.25 0.23 0.21 0.19 0.18 0.16 0.16
0.42 0.39 0.33 0.31 0.26 0.22 0.32 0.38 0.41 0.39 0.26 0.38 0.39 0.37 0.38 0.41 0.34 0.41 0.50 0.52 0.53 0.53 0.53 0.52 0.50 0.48 0.47 0.48 0.49 0.46 0.41 0.37 0.31 0.29 0.28 0.26 0.24 0.22 0.20 0.18 0.17 0.17 0.19 0.18
0.32 0.34 0.29 0.29 0.27 0.30 0.38 0.40 0.43 0.28 0.30 0.43 0.44 0.43 0.43 0.42 0.47 0.51 0.53 0.54 0.56 0.55 0.54 0.53 0.51 0.47 0.48 0.50 0.44 0.37 0.33 0.30 0.30 0.27 0.24 0.22 0.21 0.20 0.18 0.18 0.18 0.19 0.19 0.19
0.30 0.30 0.30 0.31 0.28 0.25 0.43 0.41 0.33 0.40 0.45 0.45 0.46 0.47 0.46 0.49 0.51 0.52 0.53 0.53 0.54 0.52 0.51 0.50 0.46 0.47 0.47 0.41 0.34 0.31 0.29 0.27 0.25 0.23 0.21 0.20 0.19 0.18 0.18 0.19 0.19 0.19 0.19 0.18
0.30 0.33 0.32 0.33 0.32 0.42 0.45 0.43 0.47 0.48 0.46 0.47 0.47 0.49 0.50 0.49 0.49 0.51 0.51 0.51 0.50 0.50 0.49 0.47 0.46 0.44 0.40 0.36 0.33 0.27 0.24 0.24 0.22 0.20 0.19 0.18 0.18 0.19 0.19 0.19 0.19 0.19 0.20 0.19
0.38 0.41 0.35 0.35 0.37 0.39 0.42 0.46 0.48 0.49 0.48 0.49 0.50 0.49 0.51 0.48 0.49 0.49 0.50 0.48 0.48 0.49 0.46 0.45 0.41 0.37 0.34 0.31 0.26 0.24 0.23 0.22 0.20 0.19 0.18 0.18 0.18 0.18 0.20 0.20 0.20 0.20 0.20 0.20
0.38 0.41 0.38 0.36 0.39 0.42 0.44 0.46 0.48 0.50 0.52 0.50 0.52 0.51 0.51 0.50 0.49 0.49 0.48 0.48 0.47 0.44 0.44 0.41 0.36 0.32 0.27 0.25 0.23 0.22 0.21 0.21 0.19 0.18 0.18 0.18 0.19 0.19 0.20 0.21 0.21 0.21 0.22 0.22
0.43 0.39 0.35 0.33 0.42 0.42 0.43 0.49 0.52 0.50 0.49 0.51 0.51 0.51 0.53 0.53 0.51 0.52 0.49 0.45 0.45 0.45 0.39 0.34 0.30 0.26 0.23 0.22 0.21 0.21 0.21 0.20 0.19 0.18 0.18 0.19 0.19 0.20 0.20 0.20 0.20 0.22 0.23 0.24
Wind_Speed
12 13 17 21 24 25 21 27 27 26 27 29 31 32 29 28 27 27 26 24 22 21 20 19 18 18 18 16 16 16 15 15 16 16 16 16 17 17 17 17 17 17 18 19
9 10 16 16 20 23 21 22 26 19 26 26 30 31 30 30 29 28 27 25 22 20 21 20 19 18 18 18 18 17 17 17 18 18 18 18 18 18 18 18 19 19 19 20
7 4 9 13 17 20 22 22 23 21 24 26 24 29 31 30 29 28 27 25 22 21 20 19 19 19 20 20 19 19 19 19 19 19 20 19 19 20 20 20 20 20 20 21
7 7 8 11 15 20 22 19 18 21 21 24 26 24 30 31 31 29 28 26 25 24 22 21 21 21 21 21 21 20 20 20 21 21 21 20 20 20 21 21 21 22 22 23
5 6 9 10 11 15 18 18 20 20 22 18 23 22 26 26 28 29 28 27 26 23 23 22 21 22 22 21 22 22 22 22 22 22 22 22 22 21 22 22 22 23 24 24
4 6 7 7 10 14 15 17 19 19 18 19 23 23 22 23 24 25 25 24 23 23 22 22 22 22 22 22 23 23 23 23 23 23 23 22 22 23 23 23 24 25 25 26
4 6 7 8 10 13 16 16 15 16 17 21 20 18 23 20 19 21 19 19 19 20 22 22 22 22 23 23 23 23 23 23 23 23 23 23 23 24 24 25 26 26 27 28
3 5 7 7 9 10 16 16 15 17 19 20 18 22 23 19 17 18 17 18 19 20 21 21 22 22 22 23 23 23 23 23 23 23 24 24 24 25 25 26 27 28 29 30
2 3 5 7 9 10 13 15 15 13 16 16 20 22 18 20 21 20 19 18 18 19 20 20 21 21 22 22 23 23 23 23 24 24 24 24 25 26 27 28 29 29 30 31
2 2 3 6 9 12 12 13 15 13 12 14 17 17 19 20 20 19 20 19 19 19 18 19 19 20 21 21 22 22 23 23 23 24 25 25 26 27 28 29 30 31 32 33
3 2 2 3 10 11 12 13 15 14 14 12 11 14 13 17 18 19 19 18 18 19 19 19 19 19 20 21 21 22 23 23 23 25 25 26 27 28 29 30 31 32 33 35
2 3 3 4 5 7 9 12 14 14 13 14 13 14 10 11 13 15 16 17 18 17 17 18 19 19 20 20 21 22 22 23 24 25 25 26 27 28 29 30 32 33 35 36
4 2 3 2 3 6 10 12 13 12 12 16 12 14 12 12 13 14 15 15 16 17 17 18 18 19 19 20 21 21 22 23 24 25 25 26 27 28 30 31 33 35 37 39
4 4 4 3 3 4 7 11 14 14 12 15 18 15 16 16 15 14 15 16 17 18 19 19 19 19 20 20 20 21 22 22 23 24 25 26 28 30 32 34 36 38 40 41
4 5 5 7 9 9 10 11 13 16 18 14 10 15 14 17 17 18 17 18 18 19 19 19 20 20 20 21 21 21 22 22 23 25 27 28 31 33 35 37 39 41 42 44
5 7 7 8 7 8 11 13 15 16 18 19 20 22 17 15 15 17 18 19 20 21 21 21 21 21 21 21 21 22 23 24 26 27 29 32 34 36 38 39 41 43 45 47
8 8 7 8 7 9 11 15 16 14 15 17 19 18 18 18 18 20 20 21 21 21 21 21 21 21 21 21 22 23 25 27 28 30 32 34 36 38 39 41 43 45 47 49
11 10 10 11 10 9 9 7 8 12 16 16 15 15 15 16 17 18 20 20 21 20 20 21 21 21 22 23 24 25 27 29 31 33 34 35 37 40 41 43 45 47 49 51
12 12 11 10 10 14 13 12 12 13 14 16 17 17 16 17 17 19 19 20 20 20 20 21 21 22 23 24 26 28 30 31 33 34 35 37 39 41 43 45 47 49 50 52
13 13 12 12 13 13 10 10 12 13 16 15 17 17 17 18 19 20 20 19 18 19 20 21 22 24 25 27 29 30 31 32 33 35 37 39 41 43 45 47 48 49 51 52
13 14 16 17 17 18 14 14 15 13 17 14 16 16 17 18 19 17 17 17 19 20 22 23 25 26 26 28 30 31 32 33 35 37 39 41 43 45 46 47 49 50 50 50
15 15 15 15 17 20 14 15 15 17 16 17 17 18 17 17 18 18 20 21 22 23 24 25 26 27 28 29 30 31 33 35 37 39 41 42 44 45 47 48 49 48 49 49
18 19 17 18 19 19 20 20 21 21 22 21 20 20 20 20 21 22 23 23 24 24 25 26 27 28 29 30 31 33 35 36 38 40 42 44 45 46 47 47 47 47 48 48
23 22 21 21 23 24 25 25 24 24 23 22 22 22 22 23 23 24 24 24 24 25 26 27 28 28 29 31 32 34 36 37 39 42 43 44 45 46 46 46 46 46 46 46
25 22 24 28 27 27 29 28 27 26 25 24 24 24 25 25 25 25 24 24 25 25 26 27 28 29 31 32 34 35 37 39 41 42 43 44 45 45 45 44 44 44 44 45
29 29 28 30 27 28 28 27 26 25 26 26 25 25 25 26 25 24 25 25 26 26 27 28 29 30 32 34 35 37 39 40 41 42 43 43 44 44 43 43 43 43 43 42
Wind_Direction
197 202 207 209 210 214 217 213 220 214 213 214 218 222 221 222 225 225 227 229 237 239 238 240 240 243 247 250 252 257 262 271 280 286 288 289 287 288 290 293 296 300 303 306
185 210 210 218 213 215 217 219 216 212 211 215 219 223 222 222 228 231 230 233 234 238 237 241 245 248 248 250 253 257 263 271 278 284 286 288 286 288 288 291 294 297 299 302
205 208 204 213 213 216 215 216 216 215 211 220 222 227 225 225 227 230 234 236 236 236 237 241 246 249 249 251 253 258 264 270 277 282 284 285 287 287 287 289 291 294 296 300
216 214 220 214 220 214 216 219 216 213 212 220 216 229 226 228 228 230 233 238 239 240 241 244 249 249 250 252 255 260 265 271 277 280 282 283 284 285 285 287 289 292 295 298
227 235 215 217 215 213 211 218 218 222 220 223 220 227 228 224 228 230 234 238 241 242 241 245 248 250 250 252 256 261 267 272 276 279 281 281 282 284 286 287 289 291 294 297
241 227 216 221 215 213 214 213 212 218 219 223 225 219 231 226 227 229 233 236 238 241 243 246 249 250 251 254 258 263 267 272 276 278 279 280 281 283 285 287 289 291 294 296
219 209 215 227 214 204 211 206 209 217 219 221 224 225 227 224 233 226 228 233 237 241 243 246 249 250 253 256 259 263 267 271 275 277 278 280 281 283 285 287 290 291 293 295
208 232 216 216 206 206 206 203 203 214 215 221 220 228 230 225 225 232 233 236 241 242 244 247 249 251 253 256 259 263 267 271 274 276 278 280 282 284 286 289 291 292 293 295
286 198 208 215 207 202 201 204 207 219 221 222 223 232 232 228 232 233 235 238 240 243 245 248 250 252 255 257 260 264 268 271 274 276 279 281 283 285 288 289 291 292 294 295
343 257 210 199 210 210 207 207 204 214 222 226 224 229 233 230 230 232 234 236 240 245 246 249 251 254 257 259 263 267 270 272 275 277 280 282 285 287 288 290 292 293 294 295
325 261 202 202 207 203 203 208 210 215 218 223 229 236 238 230 228 230 233 235 239 243 246 250 254 257 260 263 266 269 272 275 277 279 281 284 286 288 289 291 293 295 295 296
344 306 252 216 203 212 215 213 210 212 227 229 227 238 234 238 229 229 232 236 239 243 247 252 255 259 263 266 269 272 274 277 279 281 283 286 288 290 292 293 295 296 297 298
353 288 298 256 232 219 217 216 220 222 227 232 237 241 240 238 239 234 234 237 242 246 249 254 258 263 267 270 272 275 278 280 281 283 286 288 291 292 294 295 296 298 298 299
314 284 256 251 263 229 219 225 219 218 226 235 237 245 243 241 241 238 238 242 247 251 253 257 262 266 268 271 274 277 280 282 284 286 289 291 293 294 295 297 298 299 300 300
299 290 290 272 267 257 244 241 227 228 234 239 249 246 256 241 241 244 247 249 251 254 258 260 263 266 269 273 276 278 281 284 286 288 290 293 294 296 297 298 299 300 301 301
297 293 305 287 271 257 260 252 246 241 244 251 257 262 251 250 250 249 251 253 256 258 261 263 265 267 270 273 275 278 282 285 288 290 293 295 296 298 299 300 301 301 302 302
284 287 293 286 283 286 274 254 245 249 250 248 252 256 255 256 257 256 256 258 260 261 262 263 265 267 270 273 276 280 284 287 291 293 295 296 298 299 300 301 302 303 303 303
288 283 284 283 295 276 271 278 276 258 255 250 256 257 263 259 264 266 262 261 261 261 262 263 266 269 272 276 280 283 286 289 292 295 296 298 299 301 302 303 304 304 304 305
279 285 286 280 275 285 282 274 271 267 273 257 260 258 260 264 268 272 266 264 263 263 264 265 268 272 275 280 283 287 290 292 294 295 298 300 301 303 304 304 305 305 305 306
287 282 281 283 279 280 288 283 284 280 279 275 266 261 261 261 268 270 265 266 265 266 268 271 273 276 279 283 286 289 291 294 296 298 299 301 303 304 305 305 306 306 307 307
286 281 272 274 281 285 286 281 281 279 280 277 275 269 266 267 273 267 266 269 270 272 274 275 277 280 282 285 288 291 293 295 297 299 301 303 304 305 305 306 307 308 308 308
277 277 276 275 277 281 280 283 276 279 283 279 278 275 271 270 271 271 271 273 275 276 277 278 280 282 285 288 290 292 294 297 299 301 303 304 305 306 306 307 308 308 309 309
280 273 276 273 277 282 279 285 283 282 280 279 276 273 271 270 272 273 275 276 277 276 278 279 281 283 286 288 291 294 296 299 301 302 304 305 306 307 308 308 309 309 309 310
274 272 275 284 282 279 278 279 279 279 278 277 276 273 271 275 276 276 277 277 278 278 280 282 284 286 288 291 293 296 298 300 302 304 305 306 307 308 309 309 309 309 310 311
274 275 276 279 281 280 279 275 275 274 275 274 274 273 274 276 277 278 278 278 278 280 283 284 286 288 291 293 295 297 299 301 303 304 306 307 308 308 309 309 309 310 311 311
271 272 275 278 279 277 280 277 272 273 272 271 273 275 276 275 276 276 278 278 280 282 284 286 288 290 292 295 297 299 301 302 304 305 306 307 308 308 308 309 310 311 311 312